Regional Weather Roundup
Issued by NWS

Home | Current Version | Previous Version | Graphics & Text | Print | Product List | Glossary On
Versions: 1 2 3 4 5 6 7 8 9 10 11 12 13 14 15 16 17 18 19 20 21 22 23 24 25 26 27 28 29 30 31 32 33 34 35 36 37 38 39 40 41 42 43 44 45 46 47 48 49 50
000
ASUS43 KIND 011659
RWRIN

WEATHER ROUNDUP FOR INDIANA
NATIONAL WEATHER SERVICE INDIANAPOLIS IN
100 PM EDT WED APR 01 2015

NOTE: "FAIR" INDICATES FEW OR NO CLOUDS BELOW 12,000 FEET WITH NO
SIGNIFICANT WEATHER AND/OR OBSTRUCTIONS TO VISIBILITY.

* - STATION DOES NOT REPORT WEATHER SUCH AS PRECIPITATION OR FOG.

+ - STATION NOT QUALITY CONTROLLED BY THE NATIONAL WEATHER SERVICE.
    USE DATA WITH CAUTION...ESPECIALLY DEWPOINT AND RELATIVE
    HUMIDITY OBSERVATIONS.

INZ001>003-010>013-019-020-011800-
NORTHWEST INDIANA

CITY           SKY/WX    TMP DP  RH WIND       PRES   REMARKS
GARY /AIRPORT/ SUNNY     64  30  27 S14       30.05F

$$

LMZ046-743>745-011800-
SOUTHERN LAKE MICHIGAN

STATION/POSITION TIME  TEMP WIND        PRES
                       AIR  DIR/SP/G
                 (UTC) (F)  (DEG/KT/KT) (MB)
BURNS HARBOR     1600   60  210/ 11/ 14 1018.6F
MICHIGAN CITY    1600   42   20/  8/  8   N/A

$$

INZ004-005-014>016-021>024-011800-
NORTH CENTRAL INDIANA

CITY           SKY/WX    TMP DP  RH WIND       PRES   REMARKS
ELKHART        SUNNY     63  32  31 SW7       30.09F
GOSHEN         SUNNY     62  38  40 SW12      30.09F
SOUTH BEND     SUNNY     62  35  36 S9        30.10F

$$

INZ006>009-017-018-025>027-011800-
NORTHEAST INDIANA

CITY           SKY/WX    TMP DP  RH WIND       PRES   REMARKS
ANGOLA *+      SUNNY     59  37  44 W13       30.10F
FORT WAYNE     SUNNY     61  37  41 SW10      30.12F

$$

INZ028-029-035-036-043>045-051>053-011800-
WEST CENTRAL INDIANA

CITY           SKY/WX    TMP DP  RH WIND       PRES   REMARKS
CRAWFORDSVL +  SUNNY     63  27  25 S12       30.09S
GREENCASTLE +  SUNNY     61  30  31 SE6       30.10F
LAFAYETTE      SUNNY     64  35  34 S9        30.07F
TERRE HAUTE    SUNNY     64  39  39 S10       30.10F

$$

INZ030>032-037>040-046>048-054>057-064-065-011800-
CENTRAL INDIANA

CITY           SKY/WX    TMP DP  RH WIND       PRES   REMARKS
COLUMBUS       SUNNY     59  27  29 S9        30.14F
GREENWOOD *+   SUNNY     61  30  31 S8        30.12F
INDIANAPOLIS   MOSUNNY   62  33  33 SE10      30.10F
-EAGLE CREEK   SUNNY     61  32  33 S7        30.11F
MT COMFORT *+  SUNNY     61  21  21 S8        30.12F
SHELBYVILLE    SUNNY     61  36  39 SE9       30.12F

$$

INZ033-034-041-042-049-050-058-059-011800-
EAST CENTRAL INDIANA

CITY           SKY/WX    TMP DP  RH WIND       PRES   REMARKS
MUNCIE         SUNNY     61  34  36 VRB7      30.12F

$$

INZ060-061-067>069-081>083-085>088-011800-
SOUTHWEST INDIANA

CITY           SKY/WX    TMP DP  RH WIND       PRES   REMARKS
EVANSVILLE     SUNNY     65  40  39 SE7       30.10F
HUNTINGBURG *+ SUNNY     64  37  36 SE8       30.11F

$$

INZ062-063-066-070>080-084-089>092-011800-
SOUTH CENTRAL AND SOUTHEAST INDIANA

CITY           SKY/WX    TMP DP  RH WIND       PRES   REMARKS
BLOOMINGTON    SUNNY     63  30  28 SE8G16    30.11F
MADISON *+     SUNNY     61  30  31 SE3       30.15F
SEYMOUR +      SUNNY     64  37  36 SE7G16    30.13F

$$




USA.gov is the U.S. government's official web portal to all federal, state and local government web resources and services.